Cedar Rapids, IA

10:28 AM CDT on August 25, 2019 (GMT -0500)
The Eastern Iowa Airport

Weather History for KCID - July, 2019

Change the Weather History Date:

Sunday, July 21, 2019

  Actual Average Record
Temperature  
Mean Temperature 74 °F 73 °F  
Max Temperature 80 °F 84 °F 107 °F (1901)
Min Temperature 67 °F 63 °F 47 °F (1944)
Degree Days  
Heating Degree Days 0 0  
Month to date heating degree days 0 0  
Since 1 June heating degree days 11 29  
Since 1 July heating degree days 0 0  
Cooling Degree Days 9 8  
Month to date cooling degree days 259 168  
Year to date cooling degree days 432 383  
Since 1 June cooling degree days 404 334  
Growing Degree Days 23 (Base 50)    
Moisture  
Dew Point 66 °F    
Average Humidity 80    
Maximum Humidity 100    
Minimum Humidity 60    
Precipitation  
Precipitation 0.00 in 0.14 in 1.70 in (1961)
Month to date precipitation 1.65 3.17  
Year to date precipitation 22.03 19.53  
Sea Level Pressure  
Sea Level Pressure 29.97 in    
Wind  
Wind Speed 8 mph (NNE)    
Max Wind Speed 15 mph    
Max Gust Speed 20 mph    
Visibility 10 miles    
Events      
T = Trace of Precipitation, MM = Missing Value Source: NWS Daily Summary

Daily Weather History Graph

Daily Weather History Graph

Search for Another Location

Airport or City:

Astronomy

Jul. 21, 2019 Rise Set
Actual Time 5:49 AM CDT 8:36 PM CDT
Civil Twilight 5:17 AM CDT 9:08 PM CDT
Nautical Twilight 4:36 AM CDT 9:49 PM CDT
Astronomical Twilight 3:48 AM CDT 10:36 PM CDT
Moon 11:26 PM CDT (7/21) 10:14 AM CDT (7/21)
Length of Visible Light 15h 51m
Length of Day
14h 46m
Waning Gibbous, 80% of the Moon is Illuminated
Jul 21
Waning Gibbous
Jul 24
Last Quarter
Jul 31
New
Aug 7
First Quarter
Aug 15
Full

Hourly Weather History & Observations

Time (CDT) Temp. Heat Index Dew Point Humidity Pressure Visibility Wind Dir Wind Speed Gust Speed Precip Events Conditions
12:52 AM 70.0 °F - 66.0 °F 87% 29.88 in 10.0 mi North 9.2 mph - N/A   Partly Cloudy
1:52 AM 70.0 °F - 66.9 °F 90% 29.88 in 10.0 mi NE 12.7 mph - N/A   Clear
2:52 AM 70.0 °F - 66.9 °F 90% 29.92 in 10.0 mi North 5.8 mph - N/A   Clear
3:52 AM 68.0 °F - 66.9 °F 96% 29.94 in 10.0 mi NW 6.9 mph - N/A   Clear
4:39 AM 66.9 °F - 66.9 °F 100% 29.95 in 10.0 mi NW 6.9 mph - N/A   Mostly Cloudy
4:52 AM 66.9 °F - 66.9 °F 100% 29.93 in 10.0 mi NW 4.6 mph - N/A   Overcast
5:52 AM 68.0 °F - 66.9 °F 96% 29.92 in 10.0 mi NNW 4.6 mph - N/A   Overcast
5:57 AM 68.0 °F - 66.9 °F 96% 29.94 in 10.0 mi North 4.6 mph - N/A   Overcast
6:52 AM 70.0 °F - 66.9 °F 90% 29.94 in 10.0 mi NE 11.5 mph - N/A   Overcast
7:25 AM 70.0 °F - 66.0 °F 87% 29.98 in 10.0 mi NE 11.5 mph - N/A   Overcast
7:52 AM 70.0 °F - 66.0 °F 87% 29.95 in 10.0 mi ENE 11.5 mph - N/A   Scattered Clouds
8:52 AM 72.0 °F - 66.9 °F 84% 29.97 in 10.0 mi NE 8.1 mph - N/A   Mostly Cloudy
9:52 AM 73.0 °F - 66.9 °F 81% 29.97 in 10.0 mi ENE 8.1 mph - N/A   Mostly Cloudy
9:55 AM 73.0 °F - 66.9 °F 81% 29.99 in 10.0 mi ENE 6.9 mph - N/A   Scattered Clouds
10:05 AM 73.0 °F - 66.9 °F 81% 29.99 in 10.0 mi ENE 5.8 mph - N/A   Scattered Clouds
10:29 AM 73.9 °F - 66.9 °F 79% 29.99 in 10.0 mi ENE 6.9 mph - N/A   Overcast
10:52 AM 73.9 °F - 66.9 °F 79% 29.99 in 10.0 mi NNE 4.6 mph - N/A   Overcast
11:52 AM 75.0 °F - 66.9 °F 76% 29.98 in 10.0 mi NE 4.6 mph - N/A   Overcast
12:52 PM 77.0 °F - 68.0 °F 74% 29.97 in 10.0 mi North 9.2 mph - N/A   Overcast
1:52 PM 77.0 °F - 68.0 °F 74% 29.97 in 10.0 mi North 9.2 mph - N/A   Overcast
2:52 PM 80.1 °F 82.7 °F 68.0 °F 67% 29.96 in 10.0 mi North 12.7 mph - N/A   Mostly Cloudy
3:52 PM 78.1 °F - 66.9 °F 68% 29.97 in 10.0 mi NNE 9.2 mph - N/A   Overcast
4:52 PM 77.0 °F - 64.9 °F 66% 29.99 in 10.0 mi North 12.7 mph - N/A   Mostly Cloudy
5:52 PM 77.0 °F - 62.1 °F 60% 30.00 in 10.0 mi NE 8.1 mph - N/A   Mostly Cloudy
6:52 PM 75.0 °F - 61.0 °F 62% 30.01 in 10.0 mi ENE 5.8 mph - N/A   Mostly Cloudy
7:52 PM 73.9 °F - 64.0 °F 71% 30.02 in 10.0 mi North 4.6 mph - N/A   Partly Cloudy
8:52 PM 73.0 °F - 63.0 °F 71% 30.01 in 10.0 mi North 5.8 mph - N/A   Partly Cloudy
9:52 PM 71.1 °F - 63.0 °F 75% 30.03 in 10.0 mi North 8.1 mph - N/A   Clear
10:52 PM 71.1 °F - 61.0 °F 70% 30.03 in 10.0 mi North 6.9 mph - N/A   Clear
11:52 PM 69.1 °F - 61.0 °F 75% 30.03 in 10.0 mi North 5.8 mph - N/A   Clear